Torna al catalogo

STARLINK-6125

AttivoComunicazioniVLEO
NORAD 57114·PAYLOAD·🇺🇸 United States

Lanciato Jun 23, 2023 da Cape Canaveral Space Force Station

Loading…

Prossimi Passaggi (prossime 24 ore)

TLE

AggiornatoSource: CelesTrak SupGP

Epoca: Sep 15, 2026, 03:00 UTC

1 57114C 23090P   26258.12548611  .00005391  00000+0  19524-3 0  2582
2 57114  42.9997 291.5532 0001306 262.1084 187.4828 15.27576869    15

Traccia STARLINK-6125 in tempo reale con AllMySat

Download on the App Store